TimeMST,TemperatureF,Dew PointF,Humidity,Sea Level PressureIn,VisibilityMPH,Wind Direction,Wind SpeedMPH,Gust SpeedMPH,PrecipitationIn,Events,Conditions,WindDirDegrees,DateUTC
12:51 AM,46.0,42.1,86,29.89,10.0,West,4.6,-,0.02,Rain,Light Rain,270,2012-11-18 07:51:00
1:51 AM,50.0,39.9,68,29.87,10.0,Calm,Calm,-,0.00,,Overcast,0,2012-11-18 08:51:00
2:51 AM,50.0,39.0,66,29.87,10.0,ESE,8.1,-,N/A,,Overcast,120,2012-11-18 09:51:00
3:51 AM,45.0,41.0,86,29.87,10.0,Variable,5.8,-,0.01,,Overcast,0,2012-11-18 10:51:00
4:51 AM,48.9,39.9,71,29.87,10.0,Calm,Calm,-,0.00,,Overcast,0,2012-11-18 11:51:00
5:51 AM,46.9,39.9,77,29.89,10.0,Calm,Calm,-,0.01,,Overcast,0,2012-11-18 12:51:00
6:51 AM,48.9,39.0,69,29.90,10.0,Calm,Calm,-,0.00,,Overcast,0,2012-11-18 13:51:00
7:51 AM,46.9,39.0,74,29.92,10.0,NNW,5.8,-,0.00,,Overcast,330,2012-11-18 14:51:00
8:51 AM,48.9,41.0,74,29.92,10.0,SSW,8.1,-,0.02,Rain,Light Rain,210,2012-11-18 15:51:00
9:34 AM,48.2,41.0,76,29.98,10.0,West,11.5,-,0.00,Rain,Light Rain,280,2012-11-18 16:34:00
10:12 AM,44.6,41.0,87,30.01,2.5,WNW,12.7,21.9,0.09,Rain,Heavy Rain,300,2012-11-18 17:12:00
10:18 AM,44.6,41.0,87,30.02,8.0,WNW,11.5,-,0.09,Rain,Light Rain,300,2012-11-18 17:18:00
10:51 AM,45.0,39.9,82,29.99,10.0,East,6.9,-,0.17,,Overcast,100,2012-11-18 17:51:00
12:46 PM,46.4,41.0,81,30.03,6.0,WNW,8.1,-,0.03,Rain,Light Rain,300,2012-11-18 19:46:00
12:51 PM,45.0,41.0,86,30.00,3.0,NW,11.5,-,0.05,Rain,Rain,310,2012-11-18 19:51:00
12:56 PM,44.6,41.0,87,30.03,2.5,NW,9.2,-,0.01,Rain,Rain,310,2012-11-18 19:56:00
1:00 PM,44.6,41.0,87,30.02,4.0,NNW,9.2,-,0.02,Rain,Rain,330,2012-11-18 20:00:00
1:51 PM,46.0,44.1,93,29.98,10.0,NNE,5.8,-,0.03,Rain,Light Rain,30,2012-11-18 20:51:00
2:51 PM,46.9,46.0,97,29.99,10.0,Calm,Calm,-,0.01,Rain,Light Rain,0,2012-11-18 21:51:00
3:51 PM,46.0,46.0,100,30.01,10.0,WSW,5.8,-,0.00,,Overcast,250,2012-11-18 22:51:00
4:51 PM,44.1,42.1,93,30.01,5.0,SSW,3.5,-,0.01,Rain,Light Rain,210,2012-11-18 23:51:00
5:51 PM,43.0,41.0,93,30.04,10.0,SW,3.5,-,0.01,,Overcast,220,2012-11-19 00:51:00
6:51 PM,39.9,39.0,97,30.03,9.0,NNW,4.6,-,N/A,Thunderstorm,Scattered Clouds,340,2012-11-19 01:51:00
7:12 PM,39.2,37.4,93,30.13,8.0,West,25.3,36.8,0.01,Rain-Thunderstorm,Light Rain,270,2012-11-19 02:12:00
7:17 PM,39.2,37.4,93,30.13,4.0,WSW,13.8,35.7,0.05,Rain,Heavy Rain,250,2012-11-19 02:17:00
7:22 PM,39.2,37.4,93,30.13,3.0,West,12.7,21.9,0.08,Rain-Thunderstorm,Heavy Rain,270,2012-11-19 02:22:00
7:41 PM,39.2,37.4,93,30.14,4.0,East,11.5,-,0.16,Rain,Rain,100,2012-11-19 02:41:00
7:51 PM,39.9,37.0,89,30.11,7.0,East,18.4,23.0,0.19,Rain,Rain,90,2012-11-19 02:51:00
8:06 PM,39.2,35.6,87,30.13,10.0,ESE,13.8,-,0.01,Rain,Light Rain,110,2012-11-19 03:06:00
8:51 PM,39.9,37.0,89,30.10,10.0,South,5.8,-,0.01,,Overcast,170,2012-11-19 03:51:00
9:51 PM,39.0,37.0,93,30.12,10.0,WSW,4.6,-,0.00,,Overcast,250,2012-11-19 04:51:00
10:51 PM,39.0,37.9,96,30.13,10.0,East,8.1,-,0.00,Rain,Light Rain,80,2012-11-19 05:51:00
11:51 PM,37.9,37.0,97,30.13,10.0,NW,3.5,-,0.00,,Mostly Cloudy,310,2012-11-19 06:51:00